Regional Weather Roundup
Issued by NWS

Home | Current Version | Previous Version | Graphics & Text | Print | Product List | Glossary On
Versions: 1 2 3 4 5 6 7 8 9 10 11 12 13 14 15 16 17 18 19 20 21 22 23 24 25 26 27 28
000
ASUS45 KCYS 290610
RWRWY

WYOMING REGIONAL WEATHER ROUNDUP
NATIONAL WEATHER SERVICE CHEYENNE WY
1200 AM MDT MON AUG 29 2016

NOTE:  "FAIR" INDICATES FEW OR NO CLOUDS BELOW 12,000 FEET
WITH NO SIGNIFICANT WEATHER AND/OR OBSTRUCTIONS TO VISIBILITY.

WYZ001-290700-
YELLOWSTONE NATIONAL PARK

CITY           SKY/WX    TMP DP  RH WIND       PRES   REMARKS
LK YELLOWSTONE   N/A     45  33  63 NW3       30.47R
6HR MIN TEMP:  45; 6HR MAX TEMP:  69;

W YELLOWSTONE  NOT AVBL

$$
WYZ002>013-054>058-071-098>099-290700-
NORTHERN WYOMING

CITY           SKY/WX    TMP DP  RH WIND       PRES   REMARKS
JACKSON        FAIR      50  30  46 CALM      30.35R
CODY           FAIR      66  34  30 N5        30.25R
GREYBULL       FAIR      69  35  28 NW10      30.12R
6HR MIN TEMP:  68; 6HR MAX TEMP:  88;

WORLAND        FAIR      60  33  36 SW5       30.15R
6HR MIN TEMP:  59; 6HR MAX TEMP:  88;

SHERIDAN       FAIR      62  47  57 CALM      30.17R
6HR MIN TEMP:  61; 6HR MAX TEMP:  87;

BUFFALO        FAIR      64  33  31 W6        30.24R
6HR MIN TEMP:  64; 6HR MAX TEMP:  86;

GILLETTE       FAIR      56  39  53 W5        30.16S
6HR MIN TEMP:  55; 6HR MAX TEMP:  86;

HULETT         FAIR      68  37  32 N5        30.18R
NEWCASTLE      FAIR      73  34  23 SW7       30.15R

$$
WYZ014>020-022>026-101>103-290700-
CENTRAL WYOMING

CITY           SKY/WX    TMP DP  RH WIND       PRES   REMARKS
BIG PINEY      FAIR      53  29  39 NE6       30.37R
6HR MIN TEMP:  52; 6HR MAX TEMP:  80;

PINEDALE       FAIR      46  32  57 NW8       30.37S
DUBOIS         FAIR      55  27  33 W10       30.39R
LANDER         FAIR      70  30  22 W10       30.21S
6HR MIN TEMP:  69; 6HR MAX TEMP:  86;

RIVERTON       FAIR      66  28  24 N7        30.22R
6HR MIN TEMP:  62; 6HR MAX TEMP:  85;

CASPER         FAIR      55  39  54 NW13      30.22R
6HR MIN TEMP:  55; 6HR MAX TEMP:  86;

DOUGLAS        FAIR      56  39  53 NW3       30.20R
6HR MIN TEMP:  56; 6HR MAX TEMP:  87;


$$
WYZ021-027>030-104>119-290700-
SOUTHERN WYOMING

CITY           SKY/WX    TMP DP  RH WIND       PRES   REMARKS
EVANSTON       FAIR      64  28  25 S3        30.38R
6HR MIN TEMP:  64; 6HR MAX TEMP:  78;

FORT BRIDGER   FAIR      62  28  28 W9        30.39R
ROCK SPRINGS   FAIR      62  24  23 NW8       30.31S
6HR MIN TEMP:  62; 6HR MAX TEMP:  81;

DIXON          FAIR      53  33  45 NE7       30.35R
RAWLINS        FAIR      57  29  34 NE6       30.32R
6HR MIN TEMP:  56; 6HR MAX TEMP:  81;

SARATOGA       FAIR      54  36  50 S5        30.35S
LARAMIE        FAIR      56  43  61 S12       30.35S
6HR MIN TEMP:  56; 6HR MAX TEMP:  77; 6HR PCP: TRACE;

CHEYENNE       FAIR      61  45  55 W9        30.28F
6HR MIN TEMP:  61; 6HR MAX TEMP:  77;

TORRINGTON     FAIR      61  43  51 E6        30.15F
6HR MIN TEMP:  61; 6HR MAX TEMP:  84;

PINE BLUFFS    FAIR      61  46  59 W7        30.22S

$$




USA.gov is the U.S. government's official web portal to all federal, state and local government web resources and services.